Location: ??????
(41.3164°N, 22.6615°E)
Time: 17:17:05
(UTC+00:00)

CUBESAT XI-V - Pass Details

Date: 30 June 2022
Orbit: 668 x 690 km, 98.1° (Epoch: 17 August)

Event Time Altitude Azimuth Distance (km) Brightness Sun altitude
Exits shadow 00:43:17 39° 222° (SW) 1,013 ? -18.8°
Maximum altitude 00:44:21 46° 261° (W) 901 ? -18.7°
Drops below altitude 10° 00:48:48 10° 335° (NNW) 2,110 ? -18.2°
Sets 00:51:07 0° 341° (NNW) 3,025 ? -18.0°
